Flag for U.S.A. Weather past 2 weeks in Brattleboro, Vermont, U.S.A.

Now
82 °F

Sunny.


Feels Like: 82 °F
Forecast: 62 / 81 °F
Wind: 8 mph from West

Location: Keene / Dillant

Current Time: Aug 4, 2015 at 6:55:10 PM

Latest Report: Aug 4, 2015 at 6:15 PM


Visibility: 10 mi

Pressure: 29.83 "Hg

Humidity: 40%

Dew point: 55 °F

Location of BrattleboroLocation

Historic Weather in Brattleboro — Graph

°F

Brattleboro temperature yesterday

Maximum temperature yesterday: 88 °F (at 12:55 PM)
Minimum temperature yesterday: 57 °F (at 3:55 AM)
Average temperature yesterday: 73 °F

Past Weeks' High & Low Weather Summary

 TemperatureHumidityPressure
High91 °F (Jul 29, 3:15 PM)88% (Jul 22, 3:35 AM)30.05 "Hg (Jul 22, 3:35 AM)
Low52 °F (Aug 2, 5:35 AM)35% (Aug 1, 4:15 PM)29.57 "Hg (Jul 21, 2:55 PM)
Average70 °F67%29.87 "Hg
* Reported Jul 20 5:15 PM — Aug 4 5:35 PM, Brattleboro, Weather by CustomWeather, © 2015

Note: Actual official high and low records may vary slightly from our data, if they occured in-between our weather recording intervals... More about our weather records

Advertising

Brattleboro weather history for previous 24 hours

 ConditionsComfort  
Time TempWeatherWind HumidityBarometerVisibility
5:35 PM
Tue, Aug 4
82 °FSunny.8 mph40%29.82 "Hg10 mi
5:15 PM82 °FSunny.9 mph42%29.82 "Hg10 mi
4:55 PM82 °FPassing clouds.9 mph40%29.82 "Hg10 mi
4:35 PM82 °FBroken clouds.6 mph45%29.82 "Hg10 mi
4:15 PM79 °FScattered clouds.6 mph58%29.82 "Hg10 mi
3:55 PM77 °FMostly cloudy.7 mph61%29.83 "Hg10 mi
3:35 PM79 °FScattered clouds.5 mph58%29.81 "Hg10 mi
3:15 PM79 °FSunny.6 mph54%29.81 "Hg7 mi
2:55 PM77 °FSunny.No wind51%29.80 "Hg10 mi
2:35 PM73 °FPassing clouds.No wind57%29.83 "Hg10 mi
2:15 PM73 °FThunderstorms. Scattered clouds.5 mph53%29.81 "Hg10 mi
1:55 PM72 °FBroken clouds.6 mph57%29.82 "Hg10 mi
1:35 PM73 °FThundershowers. Broken clouds.9 mph53%29.82 "Hg10 mi
1:15 PM82 °FThundershowers. Partly sunny.12 mph45%29.81 "Hg10 mi
12:55 PM82 °FThundershowers. Passing clouds.No wind48%29.80 "Hg10 mi
12:35 PM82 °FPassing clouds.No wind45%29.81 "Hg10 mi
12:15 PM81 °FPassing clouds.6 mph51%29.83 "Hg10 mi
11:55 AM81 °FSunny.7 mph51%29.84 "Hg10 mi
11:35 AM81 °FSunny.6 mph48%29.84 "Hg10 mi
11:15 AM79 °FSunny.5 mph54%29.84 "Hg10 mi
10:55 AM77 °FSunny.No wind57%29.85 "Hg10 mi
10:35 AM75 °FSunny.No wind61%29.85 "Hg10 mi
10:15 AM75 °FSunny.6 mph65%29.85 "Hg10 mi
9:55 AM72 °FPassing clouds.No wind73%29.86 "Hg10 mi
9:35 AM72 °FSunny.No wind73%29.86 "Hg10 mi
9:15 AM70 °FPassing clouds.No wind78%29.86 "Hg10 mi
8:55 AM70 °FSunny.No wind73%29.85 "Hg10 mi
8:35 AM68 °FPassing clouds.No wind78%29.85 "Hg10 mi
8:15 AM66 °FScattered clouds.No wind83%29.85 "Hg10 mi
7:55 AM64 °FPartly sunny.No wind83%29.84 "Hg7 mi
7:35 AM64 °FScattered clouds.No wind83%29.84 "Hg5 mi
7:15 AM64 °FPassing clouds.No wind78%29.84 "Hg2 mi
6:55 AM64 °FBroken clouds.No wind78%29.84 "Hg4 mi
6:35 AM64 °FPartly cloudy.No wind78%29.85 "Hg3 mi
6:15 AM64 °FPassing clouds.3 mph78%29.86 "Hg4 mi
5:55 AM64 °FLow clouds.No wind83%29.85 "Hg0 mi
5:35 AM64 °FPartly cloudy.No wind78%29.84 "Hg3 mi
5:15 AM64 °FLow clouds.No wind83%29.85 "Hg1 mi
4:55 AM64 °FLow clouds.No wind83%29.85 "Hg1 mi
4:35 AM64 °FLow clouds.No wind83%29.84 "Hg1 mi
4:15 AM64 °FLow clouds.No wind83%29.83 "Hg3 mi
3:55 AM64 °FLow clouds.No wind78%29.84 "Hg7 mi
3:35 AM64 °FLow clouds.No wind78%29.83 "Hg5 mi
3:15 AM63 °FPassing clouds.No wind83%29.83 "Hg7 mi
2:55 AM64 °FPassing clouds.No wind78%29.84 "Hg5 mi
2:35 AM64 °FPassing clouds.No wind83%29.83 "Hg5 mi
2:15 AM64 °FClear.No wind83%29.83 "Hg4 mi
1:55 AM64 °FPassing clouds.No wind88%29.82 "Hg3 mi
1:35 AM66 °FPassing clouds.No wind83%29.82 "Hg7 mi
1:15 AM66 °FPassing clouds.No wind83%29.82 "Hg6 mi
12:55 AM66 °FPartly cloudy.No wind83%29.83 "Hg8 mi
12:35 AM66 °FPassing clouds.No wind83%29.82 "Hg7 mi
11:55 PM
Mon, Aug 3
66 °FClear.No wind83%29.82 "Hg10 mi
11:15 PM68 °FPartly cloudy.3 mph83%29.82 "Hg10 mi
10:55 PM68 °FPassing clouds.3 mph78%29.81 "Hg8 mi
10:35 PM68 °FPassing clouds.5 mph83%29.81 "Hg9 mi
9:55 PM70 °FPassing clouds.No wind78%29.80 "Hg10 mi
9:35 PM70 °FPassing clouds.3 mph78%29.80 "Hg10 mi
9:15 PM70 °FPassing clouds.No wind78%29.79 "Hg10 mi
8:55 PM70 °FBroken clouds.No wind78%29.78 "Hg10 mi
8:35 PM70 °FPartly sunny.No wind78%29.78 "Hg10 mi
8:15 PM72 °FScattered clouds.No wind78%29.77 "Hg10 mi
7:55 PM73 °FBroken clouds.No wind69%29.77 "Hg10 mi
7:35 PM73 °FThundershowers. Partly sunny.No wind69%29.76 "Hg10 mi
7:15 PM75 °FBroken clouds.3 mph65%29.76 "Hg10 mi
6:55 PM79 °FScattered clouds.6 mph58%29.75 "Hg10 mi
6:35 PM82 °FPassing clouds.7 mph48%29.74 "Hg10 mi
Weather by CustomWeather, © 2015

See weather overviewHow to use our weather pages